H1 CPF 1 NER 2018 2 15 9 5461 glonass121 H2 1000702 9121 36401 2018 2 15 0 0 0 2018 2 18 23 45 0 900 1 1 0 0 0 H9 10 0 58164 0.00000 0 -10411024.872 6159587.516 -22476909.657 10 0 58164 900.00000 0 -10389736.076 3350488.386 -23072117.408 10 0 58164 1800.00000 0 -10583339.038 502105.315 -23220130.929 10 0 58164 2700.00000 0 -10989371.403 -2314450.962 -22918020.548 10 0 58164 3600.00000 0 -11592907.821 -5029676.463 -22171561.714 10 0 58164 4500.00000 0 -12367168.029 -7578315.761 -20995130.280 10 0 58164 5400.00000 0 -13274639.545 -9901828.523 -19411433.577 10 0 58164 6300.00000 0 -14268669.185 -11950579.443 -17451081.536 10 0 58164 7200.00000 0 -15295457.693 -13685661.278 -15152005.060 10 0 58164 8100.00000 0 -16296374.809 -15080275.674 -12558731.694 10 0 58164 9000.00000 0 -17210498.270 -16120614.475 -9721531.448 10 0 58164 9900.00000 0 -17977270.385 -16806204.699 -6695448.427 10 0 58164 10800.00000 0 -18539160.327 -17149702.784 -3539236.308 10 0 58164 11700.00000 0 -18844219.477 -17176146.656 -314218.005 10 0 58164 12600.00000 0 -18848421.162 -16921697.134 2916908.257 10 0 58164 13500.00000 0 -18517684.806 -16431921.870 6091292.868 10 0 58164 14400.00000 0 -17829497.538 -15759694.614 9147164.313 10 0 58164 15300.00000 0 -16774063.195 -14962799.060 12025039.323 10 0 58164 16200.00000 0 -15354928.600 -14101339.310 14668889.207 10 0 58164 17100.00000 0 -13589059.124 -13235067.254 17027238.772 10 0 58164 18000.00000 0 -11506359.052 -12420740.754 19054175.516 10 0 58164 18900.00000 0 -9148655.722 -11709625.112 20710248.881 10 0 58164 19800.00000 0 -6568189.192 -11145244.096 21963241.698 10 0 58164 20700.00000 0 -3825670.150 -10761475.992 22788798.572 10 0 58164 21600.00000 0 -987986.818 -10581075.340 23170899.135 10 0 58164 22500.00000 0 1874343.665 -10614682.715 23102167.138 10 0 58164 23400.00000 0 4689873.243 -10860364.171 22584009.728 10 0 58164 24300.00000 0 7388958.143 -11303699.346 21626584.612 10 0 58164 25200.00000 0 9906417.747 -11918414.065 20248596.135 10 0 58164 26100.00000 0 12184006.824 -12667530.144 18476924.659 10 0 58164 27000.00000 0 14172598.906 -13504983.347 16346096.801 10 0 58164 27900.00000 0 15833990.822 -14377640.667 13897607.154 10 0 58164 28800.00000 0 17142254.242 -15227631.277 11179105.057 10 0 58164 29700.00000 0 18084579.333 -15994892.387 8243462.559 10 0 58164 30600.00000 0 18661576.881 -16619822.162 5147742.019 10 0 58164 31500.00000 0 18887027.988 -17045927.492 1952083.857 10 0 58164 32400.00000 0 18787093.676 -17222354.741 -1281463.601 10 0 58164 33300.00000 0 18399019.300 -17106196.612 -4490149.189 10 0 58164 34200.00000 0 17769389.725 -16664477.901 -7611735.153 10 0 58164 35100.00000 0 16952009.910 -15875736.519 -10585701.003 10 0 58164 36000.00000 0 16005500.940 -14731133.230 -13354411.739 10 0 58164 36900.00000 0 14990713.099 -13235043.424 -15864228.086 10 0 58164 37800.00000 0 13968064.914 -11405105.848 -18066537.837 10 0 58164 38700.00000 0 12994919.711 -9271725.757 -19918689.125 10 0 58164 39600.00000 0 12123109.390 -6877052.591 -21384808.362 10 0 58164 40500.00000 0 11396708.620 -4273473.814 -22436488.010 10 0 58164 41400.00000 0 10850152.078 -1521686.344 -23053331.748 10 0 58164 42300.00000 0 10506772.977 1311575.633 -23223347.156 10 0 58164 43200.00000 0 10377823.636 4156063.734 -22943178.796 10 0 58164 44100.00000 0 10462018.916 6940686.345 -22218177.261 10 0 58164 45000.00000 0 10745621.790 9596218.184 -21062302.615 10 0 58164 45900.00000 0 11203067.848 12057937.536 -19497863.453 10 0 58164 46800.00000 0 11798103.252 14268082.886 -17555095.720 10 0 58164 47700.00000 0 12485389.196 16178027.675 -15271588.339 10 0 58164 48600.00000 0 13212506.327 17750083.283 -12691565.554 10 0 58164 49500.00000 0 13922275.548 18958855.339 -9865038.715 10 0 58164 50400.00000 0 14555297.964 19792096.677 -6846843.031 10 0 58164 51300.00000 0 15052607.045 20251021.121 -3695577.256 10 0 58164 52200.00000 0 15358320.811 20350064.758 -472466.494 10 0 58164 53100.00000 0 15422181.340 20116104.491 2759829.654 10 0 58164 54000.00000 0 15201873.218 19587166.796 5938440.138 10 0 58164 54900.00000 0 14665021.517 18810681.168 9001512.242 10 0 58164 55800.00000 0 13790783.306 17841352.308 11889423.250 10 0 58164 56700.00000 0 12570963.716 16738741.397 14545949.477 10 0 58164 57600.00000 0 11010607.788 15564659.243 16919369.001 10 0 58164 58500.00000 0 9128041.578 14380482.163 18963475.725 10 0 58164 59400.00000 0 6954359.421 13244504.617 20638484.435 10 0 58164 60300.00000 0 4532377.664 12209440.934 21911808.842 10 0 58164 61200.00000 0 1915097.963 11320181.936 22758697.271 10 0 58164 62100.00000 0 -836256.262 10611901.240 23162713.688 10 0 58164 63000.00000 0 -3654548.617 10108590.891 23116054.969 10 0 58164 63900.00000 0 -6469287.634 9822087.728 22619698.519 10 0 58164 64800.00000 0 -9209327.484 9751630.818 21683377.838 10 0 58164 65700.00000 0 -11805599.207 9883967.864 20325386.871 10 0 58164 66600.00000 0 -14193759.024 10194005.173 18572217.371 10 0 58164 67500.00000 0 -16316643.921 10645972.801 16458036.699 10 0 58164 68400.00000 0 -18126432.881 11195054.838 14024016.527 10 0 58164 69300.00000 0 -19586424.487 11789415.095 11317525.867 10 0 58164 70200.00000 0 -20672357.845 12372531.940 8391204.459 10 0 58164 71100.00000 0 -21373223.002 12885742.998 5301934.839 10 0 58164 72000.00000 0 -21691528.387 13270891.728 2109733.501 10 0 58164 72900.00000 0 -21643015.741 13472963.692 -1123416.944 10 0 58164 73800.00000 0 -21255836.041 13442600.955 -4334771.673 10 0 58164 74700.00000 0 -20569222.539 13138388.351 -7462039.910 10 0 58164 75600.00000 0 -19631717.907 12528815.113 -10444589.914 10 0 58164 76500.00000 0 -18499030.985 11593829.163 -13224619.462 10 0 58164 77400.00000 0 -17231613.768 10325918.588 -15748269.378 10 0 58164 78300.00000 0 -15892060.641 8730674.605 -17966659.170 10 0 58164 79200.00000 0 -14542438.839 6826811.980 -19836825.475 10 0 58164 80100.00000 0 -13241661.629 4645645.367 -21322545.991 10 0 58164 81000.00000 0 -12043013.544 2230042.464 -22395033.916 10 0 58164 81900.00000 0 -10991930.404 -367103.680 -23033490.368 10 0 58164 82800.00000 0 -10124126.154 -3084821.020 -23225504.750 10 0 58164 83700.00000 0 -9464144.065 -5856344.351 -22967295.818 10 0 58164 84600.00000 0 -9024392.279 -8611647.451 -22263788.870 10 0 58164 85500.00000 0 -8804703.738 -11280118.036 -21128527.326 10 0 58165 0.00000 0 -8792438.825 -13793266.101 -19583419.859 10 0 58165 900.00000 0 -8963126.824 -16087354.459 -17658326.771 10 0 58165 1800.00000 0 -9281619.249 -18105843.312 -15390493.194 10 0 58165 2700.00000 0 -9703707.991 -19801546.993 -12823837.979 10 0 58165 3600.00000 0 -10178139.919 -21138414.459 -10008111.589 10 0 58165 4500.00000 0 -10648944.104 -22092858.005 -6997938.029 10 0 58165 5400.00000 0 -11057973.416 -22654574.963 -3851758.776 10 0 58165 6300.00000 0 -11347553.124 -22826827.350 -630698.773 10 0 58165 7200.00000 0 -11463123.966 -22626167.329 2602623.374 10 0 58165 8100.00000 0 -11355767.029 -22081619.737 5785317.547 10 0 58165 9000.00000 0 -10984502.324 -21233355.912 8855452.227 10 0 58165 9900.00000 0 -10318262.347 -20130914.797 11753267.645 10 0 58165 10800.00000 0 -9337455.483 -18831046.604 14422347.485 10 0 58165 11700.00000 0 -8035051.461 -17395270.432 16810725.383 10 0 58165 12600.00000 0 -6417141.423 -15887249.469 18871903.781 10 0 58165 13500.00000 0 -4502947.431 -14370095.018 20565764.715 10 0 58165 14400.00000 0 -2324279.656 -12903713.497 21859354.415 10 0 58165 15300.00000 0 75537.025 -11542308.580 22727526.214 10 0 58165 16200.00000 0 2643222.913 -10332143.717 23153429.359 10 0 58165 17100.00000 0 5317525.289 -9309659.047 23128834.416 10 0 58165 18000.00000 0 8031539.660 -8500021.486 22654289.266 10 0 58165 18900.00000 0 10715273.960 -7916168.214 21739103.074 10 0 58165 19800.00000 0 13298349.046 -7558382.787 20401158.931 10 0 58165 20700.00000 0 15712723.080 -7414420.602 18666559.223 10 0 58165 21600.00000 0 17895326.615 -7460177.092 16569110.992 10 0 58165 22500.00000 0 19790498.966 -7660869.197 14149661.610 10 0 58165 23400.00000 0 21352124.758 -7972679.046 11455298.063 10 0 58165 24300.00000 0 22545382.302 -8344789.295 8538425.743 10 0 58165 25200.00000 0 23348031.747 -8721723.165 5455744.985 10 0 58165 26100.00000 0 23751190.247 -9045889.494 2267145.690 10 0 58165 27000.00000 0 23759563.080 -9260224.607 -965458.154 10 0 58165 27900.00000 0 23391122.380 -9310818.892 -4179331.120 10 0 58165 28800.00000 0 22676248.325 -9149416.879 -7312132.506 10 0 58165 29700.00000 0 21656370.045 -8735685.087 -10303122.352 10 0 58165 30600.00000 0 20382164.274 -8039151.893 -13094334.095 10 0 58165 31500.00000 0 18911388.017 -7040737.635 -15631691.332 10 0 58165 32400.00000 0 17306436.434 -5733810.384 -17866047.704 10 0 58165 33300.00000 0 15631728.221 -4124722.686 -19754130.496 10 0 58165 34200.00000 0 13951027.582 -2232806.225 -21259370.538 10 0 58165 35100.00000 0 12324814.086 -89823.714 -22352603.303 10 0 58165 36000.00000 0 10807809.425 2261100.296 -23012628.542 10 0 58165 36900.00000 0 9446763.390 4767026.512 -23226618.318 10 0 58165 37800.00000 0 8278590.461 7367163.189 -22990366.020 10 0 58165 38700.00000 0 7328933.909 9995163.855 -22308371.697 10 0 58165 39600.00000 0 6611216.697 12581666.655 -21193761.772 10 0 58165 40500.00000 0 6126218.384 15056971.529 -19668044.161 10 0 58165 41400.00000 0 5862195.532 17353745.395 -17760702.561 10 0 58165 42300.00000 0 5795540.682 19409643.836 -15508636.714 10 0 58165 43200.00000 0 5891952.445 21169740.889 -12955458.244 10 0 58165 44100.00000 0 6108067.881 22588665.913 -10150654.533 10 0 58165 45000.00000 0 6393488.720 23632358.184 -7148635.889 10 0 58165 45900.00000 0 6693116.136 24279365.477 -4007683.752 10 0 58165 46800.00000 0 6949695.353 24521631.653 -788819.945 10 0 58165 47700.00000 0 7106462.114 24364739.515 2445380.997 10 0 58165 48600.00000 0 7109778.251 23827598.164 5632013.001 10 0 58165 49500.00000 0 6911643.706 22941587.514 8709068.793 10 0 58165 50400.00000 0 6471977.275 21749195.729 11616654.483 10 0 58165 51300.00000 0 5760568.004 20302206.970 14298163.860 10 0 58165 52200.00000 0 4758613.011 18659515.971 16701388.634 10 0 58165 53100.00000 0 3459775.109 16884661.893 18779542.045 10 0 58165 54000.00000 0 1870714.023 15043185.764 20492175.381 10 0 58165 54900.00000 0 11067.346 13199923.104 21805969.089 10 0 58165 55800.00000 0 -2087119.157 11416346.005 22695382.897 10 0 58165 56700.00000 0 -4380489.000 9748066.479 23143152.357 10 0 58165 57600.00000 0 -6815954.995 8242605.787 23140622.350 10 0 58165 58500.00000 0 -9332696.233 6937523.018 22687911.402 10 0 58165 59400.00000 0 -11864488.956 5858980.694 21793904.019 10 0 58165 60300.00000 0 -14342274.294 5020806.539 20476071.599 10 0 58165 61200.00000 0 -16696855.820 4424089.541 18760125.791 10 0 58165 62100.00000 0 -18861614.577 4057325.767 16679511.457 10 0 58165 63000.00000 0 -20775128.538 3897106.195 14274749.364 10 0 58165 63900.00000 0 -22383587.431 3909316.014 11592641.808 10 0 58165 64800.00000 0 -23642902.568 4050793.301 8685356.917 10 0 58165 65700.00000 0 -24520424.169 4271375.695 5609409.762 10 0 58165 66600.00000 0 -24996195.112 4516247.484 2424560.520 10 0 58165 67500.00000 0 -25063689.659 4728486.962 -807348.555 10 0 58165 68400.00000 0 -24730007.280 4851705.694 -4023594.489 10 0 58165 69300.00000 0 -24015514.581 4832667.674 -7161789.615 10 0 58165 70200.00000 0 -22952951.433 4623777.452 -10161088.607 10 0 58165 71100.00000 0 -21586039.683 4185332.034 -12963363.267 10 0 58165 72000.00000 0 -19967653.452 3487441.563 -15514322.483 10 0 58165 72900.00000 0 -18157628.018 2511537.782 -17764556.287 10 0 58165 73800.00000 0 -16220298.980 1251406.613 -19670484.545 10 0 58165 74700.00000 0 -14221874.286 -286298.830 -21195192.741 10 0 58165 75600.00000 0 -12227748.181 -2082087.043 -22309139.676 10 0 58165 76500.00000 0 -10299868.238 -4104198.543 -22990724.292 10 0 58165 77400.00000 0 -8494264.176 -6309695.324 -23226701.355 10 0 58165 78300.00000 0 -6858840.299 -8646025.559 -23012438.441 10 0 58165 79200.00000 0 -5431522.404 -11053000.121 -22352009.431 10 0 58165 80100.00000 0 -4238835.492 -13465100.421 -21258122.418 10 0 58165 81000.00000 0 -3294970.818 -15814023.310 -19751882.898 10 0 58165 81900.00000 0 -2601380.716 -18031358.691 -17862395.873 10 0 58165 82800.00000 0 -2146917.923 -20051289.522 -15626213.502 10 0 58165 83700.00000 0 -1908513.477 -21813202.516 -13086637.776 10 0 58165 84600.00000 0 -1852364.816 -23264101.045 -10292890.511 10 0 58165 85500.00000 0 -1935584.250 -24360719.271 -7299165.816 10 0 58166 0.00000 0 -2108238.405 -25071248.743 -4163582.704 10 0 58166 900.00000 0 -2315692.324 -25376604.069 -947057.349 10 0 58166 1800.00000 0 -2501159.254 -25271174.584 2287882.030 10 0 58166 2700.00000 0 -2608346.758 -24763027.956 5478315.637 10 0 58166 3600.00000 0 -2584087.107 -23873558.142 8562162.600 10 0 58166 4500.00000 0 -2380838.674 -22636590.634 11479396.989 10 0 58166 5400.00000 0 -1958951.292 -21096982.873 14173224.700 10 0 58166 6300.00000 0 -1288598.022 -19308778.427 16591197.388 10 0 58166 7200.00000 0 -351290.116 -17332992.788 18686240.819 10 0 58166 8100.00000 0 859090.377 -15235124.130 20417577.029 10 0 58166 9000.00000 0 2335785.388 -13082493.950 21751521.931 10 0 58166 9900.00000 0 4059205.440 -10941529.586 22662142.595 10 0 58166 10800.00000 0 5997523.328 -8875102.765 23131761.496 10 0 58166 11700.00000 0 8107792.773 -6940035.649 23151298.134 10 0 58166 12600.00000 0 10337545.752 -5184878.600 22720441.666 10 0 58166 13500.00000 0 12626802.037 -3648052.042 21847651.635 10 0 58166 14400.00000 0 14910407.226 -2356429.219 20549987.158 10 0 58166 15300.00000 0 17120601.577 -1324418.007 18852768.322 10 0 58166 16200.00000 0 19189712.443 -553578.669 16789076.722 10 0 58166 17100.00000 0 21052857.898 -32791.852 14399105.201 10 0 58166 18000.00000 0 22650548.600 261032.020 11729369.786 10 0 58166 18900.00000 0 23931079.375 361733.662 8831799.490 10 0 58166 19800.00000 0 24852610.810 312229.221 5762721.994 10 0 58166 20700.00000 0 25384854.187 162450.145 2581765.373 10 0 58166 21600.00000 0 25510289.889 -33013.097 -649302.458 10 0 58166 22500.00000 0 25224868.992 -217462.890 -3867773.736 10 0 58166 23400.00000 0 24538169.485 -334733.415 -7011216.648 10 0 58166 24300.00000 0 23473001.465 -331804.713 -10018683.302 10 0 58166 25200.00000 0 22064478.556 -161281.233 -12831886.540 10 0 58166 26100.00000 0 20358595.099 216369.760 -15396323.036 10 0 58166 27000.00000 0 18410368.926 830914.268 -17662321.484 10 0 58166 27900.00000 0 16281627.392 1700862.354 -19585996.361 10 0 58166 28800.00000 0 14038528.811 2832456.363 -21130089.600 10 0 58166 29700.00000 0 11748922.045 4219179.488 -22264684.881 10 0 58166 30600.00000 0 9479653.284 5841806.002 -22967781.633 10 0 58166 31500.00000 0 7293931.104 7668992.049 -23225718.328 10 0 58166 32400.00000 0 5248858.144 9658383.724 -23033437.417 10 0 58166 33300.00000 0 3393230.840 11758197.807 -22394586.929 10 0 58166 34200.00000 0 1765697.653 13909210.941 -21321456.543 10 0 58166 35100.00000 0 393351.475 16047076.125 -19834748.830 10 0 58166 36000.00000 0 -709185.897 18104871.583 -17963189.162 10 0 58166 36900.00000 0 -1540149.459 20015777.047 -15742980.755 10 0 58166 37800.00000 0 -2110471.077 21715766.717 -13217114.210 10 0 58166 38700.00000 0 -2443080.768 23146206.972 -10434543.661 10 0 58166 39600.00000 0 -2571698.529 24256250.165 -7449244.570 10 0 58166 40500.00000 0 -2539167.608 25004923.867 -4319170.672 10 0 58166 41400.00000 0 -2395399.631 25362827.230 -1105129.837 10 0 58166 42300.00000 0 -2195018.658 25313362.187 2130399.206 10 0 58166 43200.00000 0 -1994804.351 24853446.679 5324486.038 10 0 58166 44100.00000 0 -1851043.316 23993678.788 8414979.269 10 0 58166 45000.00000 0 -1816901.812 22757943.923 11341723.904 10 0 58166 45900.00000 0 -1939932.392 21182480.834 14047740.774 10 0 58166 46800.00000 0 -2259821.462 19314445.268 16480344.114 10 0 58166 47700.00000 0 -2806474.492 17210031.442 18592174.616 10 0 58166 48600.00000 0 -3598521.281 14932230.258 20342127.221 10 0 58166 49500.00000 0 -4642305.726 12548318.472 21696155.179 10 0 58166 50400.00000 0 -5931403.860 10127184.348 22627934.461 10 0 58166 51300.00000 0 -7446691.444 7736601.944 23119375.686 10 0 58166 52200.00000 0 -9156959.111 5440568.084 23160973.773 10 0 58166 53100.00000 0 -11020049.725 3296813.211 22751988.862 10 0 58166 54000.00000 0 -12984470.723 1354589.635 21900455.378 10 0 58166 54900.00000 0 -14991414.062 -347171.257 20623019.477 10 0 58166 55800.00000 0 -16977099.259 -1781256.893 18944608.441 10 0 58166 56700.00000 0 -18875341.448 -2933069.535 16897938.843 10 0 58166 57600.00000 0 -20620236.941 -3800984.673 14522873.343 10 0 58166 58500.00000 0 -22148853.776 -4396158.583 11865639.035 10 0 58166 59400.00000 0 -23403814.640 -4741795.173 8977922.830 10 0 58166 60300.00000 0 -24335664.060 -4871904.872 5915861.816 10 0 58166 61200.00000 0 -24904920.879 -4829609.612 2738948.633 10 0 58166 62100.00000 0 -25083730.323 -4665066.993 -491126.507 10 0 58166 63000.00000 0 -24857046.900 -4433102.530 -3711674.391 10 0 58166 63900.00000 0 -24223299.059 -4190650.944 -6860222.322 10 0 58166 64800.00000 0 -23194508.372 -3994115.234 -9875722.979 10 0 58166 65700.00000 0 -21795858.788 -3896755.405 -12699733.239 10 0 58166 66600.00000 0 -20064734.450 -3946217.154 -15277540.337 10 0 58166 67500.00000 0 -18049266.540 -4182304.695 -17559214.138 10 0 58166 68400.00000 0 -15806449.833 -4635091.392 -19500565.866 10 0 58166 69300.00000 0 -13399907.229 -5323447.643 -21063995.588 10 0 58166 70200.00000 0 -10897394.769 -6254047.925 -22219213.014 10 0 58166 71100.00000 0 -8368150.009 -7420899.065 -22943818.628 10 0 58166 72000.00000 0 -5880192.910 -8805410.139 -23223734.574 10 0 58166 72900.00000 0 -3497690.068 -10377002.115 -23053477.560 10 0 58166 73800.00000 0 -1278490.392 -12094233.107 -22436268.612 10 0 58166 74700.00000 0 728066.585 -13906393.750 -21383977.369 10 0 58166 75600.00000 0 2482979.836 -15755507.756 -19916901.452 10 0 58166 76500.00000 0 3958978.261 -17578655.735 -18063384.253 10 0 58166 77400.00000 0 5141417.003 -19310526.600 -15859277.456 10 0 58166 78300.00000 0 6028641.755 -20886091.015 -13347257.495 10 0 58166 79200.00000 0 6631806.081 -22243285.748 -10576007.931 10 0 58166 80100.00000 0 6974149.486 -23325596.623 -7599282.655 10 0 58166 81000.00000 0 7089766.693 -24084431.532 -4474867.277 10 0 58166 81900.00000 0 7021920.098 -24481183.162 -1263458.401 10 0 58166 82800.00000 0 6820966.811 -24488893.683 1972517.397 10 0 58166 83700.00000 0 6541988.368 -24093450.156 5170121.640 10 0 58166 84600.00000 0 6242224.067 -23294259.004 8267134.799 10 0 58166 85500.00000 0 5978417.454 -22104369.895 11203274.990 10 0 58167 0.00000 0 5804189.428 -20550042.782 13921379.864 10 0 58167 900.00000 0 5767550.792 -18669775.089 16368528.018 10 0 58167 1800.00000 0 5908659.683 -16512830.256 18497076.417 10 0 58167 2700.00000 0 6257922.005 -14137327.838 20265593.978 10 0 58167 3600.00000 0 6834514.174 -11607976.217 21639672.026 10 0 58167 4500.00000 0 7645393.035 -8993542.413 22592595.826 10 0 58167 5400.00000 0 8684834.902 -6364165.100 23105864.170 10 0 58167 6300.00000 0 9934523.989 -3788623.062 23169547.110 10 0 58167 7200.00000 0 11364186.901 -1331673.124 22782475.168 10 0 58167 8100.00000 0 12932746.838 948431.754 21952256.790 10 0 58167 9000.00000 0 14589949.181 3002141.340 20695124.078 10 0 58167 9900.00000 0 16278390.182 4790433.070 19035610.227 10 0 58167 10800.00000 0 17935863.611 6286188.195 17006065.330 10 0 58167 11700.00000 0 19497926.760 7475063.242 14646020.262 10 0 58167 12600.00000 0 20900577.977 8355822.036 12001411.422 10 0 58167 13500.00000 0 22082933.276 8940116.437 9123681.707 10 0 58167 14400.00000 0 22989789.623 9251726.981 6068775.541 10 0 58167 15300.00000 0 23573967.293 9325297.310 2896047.911 10 0 58167 16200.00000 0 23798333.101 9204617.495 -332891.011 10 0 58167 17100.00000 0 23637419.805 8940530.190 -3555372.963 10 0 58167 18000.00000 0 23078574.014 8588549.148 -6708886.789 10 0 58167 18900.00000 0 22122584.822 8206291.506 -9732288.102 10 0 58167 19800.00000 0 20783767.128 7850832.760 -12566980.045 10 0 58167 20700.00000 0 19089496.456 7576096.210 -15158042.483 10 0 58167 21600.00000 0 17079214.780 7430386.900 -17455288.308 10 0 58167 22500.00000 0 14802948.779 7454173.736 -19414227.165 10 0 58167 23400.00000 0 12319401.905 7678212.818 -20996918.728 10 0 58167 24300.00000 0 9693699.081 8122090.684 -22172700.052 10 0 58167 25200.00000 0 6994876.792 8793248.594 -22918773.804 10 0 58167 26100.00000 0 4293221.732 9686529.033 -23220646.743 10 0 58167 27000.00000 0 1657567.116 10784263.993 -23072410.518 10 0 58167 27900.00000 0 -847342.608 12056902.331 -22476859.534 10 0 58167 28800.00000 0 -3163310.609 13464151.094 -21445443.405 10 0 58167 29700.00000 0 -5240869.254 14956584.558 -19998054.406 10 0 58167 30600.00000 0 -7041094.893 16477655.153 -18162653.113 10 0 58167 31500.00000 0 -8536981.007 17966023.520 -15974738.420 10 0 58167 32400.00000 0 -9714313.108 19358111.334 -13476670.939 10 0 58167 33300.00000 0 -10572009.189 20590770.743 -10716861.666 10 0 58167 34200.00000 0 -11121911.545 21603958.772 -7748840.639 10 0 58167 35100.00000 0 -11388038.870 22343304.309 -4630222.839 10 0 58167 36000.00000 0 -11405330.118 22762459.150 -1421590.934 10 0 58167 36900.00000 0 -11217933.247 22825133.174 1814683.422 10 0 58167 37800.00000 0 -10877111.404 22506726.682 5015656.521 10 0 58167 38700.00000 0 -10438855.622 21795489.652 8119043.525 10 0 58167 39600.00000 0 -9961305.733 20693157.604 11064438.461 10 0 58167 40500.00000 0 -9502089.650 19215035.865 13794498.619 10 0 58167 41400.00000 0 -9115694.689 17389527.484 16256069.360 10 0 58167 42300.00000 0 -8850983.344 15257123.690 18401226.452 10 0 58167 43200.00000 0 -8748959.697 12868898.618 20188215.052 10 0 58167 44100.00000 0 -8840881.905 10284570.955 21582266.572 10 0 58167 45000.00000 0 -9146801.309 7570213.537 22556277.300 10 0 58167 45900.00000 0 -9674590.509 4795706.555 23091335.603 10 0 58167 46800.00000 0 -10419501.816 2032040.677 23177087.673 10 0 58167 47700.00000 0 -11364274.932 -651417.443 22811934.995 10 0 58167 48600.00000 0 -12479789.405 -3189583.516 22003060.125 10 0 58167 49500.00000 0 -13726234.375 -5524127.557 20766280.684 10 0 58167 50400.00000 0 -15054746.202 -7605657.037 19125734.825 10 0 58167 51300.00000 0 -16409444.905 -9395521.292 17113404.685 10 0 58167 52200.00000 0 -17729783.543 -10867163.294 14768487.384 10 0 58167 53100.00000 0 -18953111.408 -12006963.798 12136626.235 10 0 58167 54000.00000 0 -20017343.057 -12814544.492 9269017.371 10 0 58167 54900.00000 0 -20863620.698 -13302519.361 6221409.536 10 0 58167 55800.00000 0 -21438857.813 -13495706.678 3053016.872 10 0 58167 56700.00000 0 -21698056.994 -13429836.682 -174633.798 10 0 58167 57600.00000 0 -21606304.580 -13149811.050 -3398898.515 10 0 58167 58500.00000 0 -21140358.344 -12707588.936 -6557231.009 10 0 58167 59400.00000 0 -20289761.735 -12159789.785 -9588393.119 10 0 58167 60300.00000 0 -19057438.029 -11565114.779 -12433637.457 10 0 58167 61200.00000 0 -17459739.620 -10981695.909 -15037839.556 10 0 58167 62100.00000 0 -15525950.315 -10464484.467 -17350558.148 10 0 58167 63000.00000 0 -13297261.181 -10062788.647 -19327003.769 10 0 58167 63900.00000 0 -10825262.229 -9818063.445 -20928897.762 10 0 58167 64800.00000 0 -8170011.972 -9762045.289 -22125206.045 10 0 58167 65700.00000 0 -5397764.096 -9915309.357 -22892734.411 10 0 58167 66600.00000 0 -2578444.461 -10286309.905 -23216574.552 10 0 58167 67500.00000 0 217018.327 -10870943.953 -23090392.766 10 0 58167 68400.00000 0 2919399.599 -11652657.052 -22516555.968 10 0 58167 69300.00000 0 5463811.728 -12603087.470 -21506092.368 10 0 58167 70200.00000 0 7792155.812 -13683222.890 -20078487.065 10 0 58167 71100.00000 0 9855291.337 -14845022.416 -18261315.616 10 0 58167 72000.00000 0 11614834.414 -16033437.164 -16089721.573 10 0 58167 72900.00000 0 13044510.389 -17188745.876 -13605746.898 10 0 58167 73800.00000 0 14131004.741 -18249108.445 -10857526.945 10 0 58167 74700.00000 0 14874276.793 -19153230.546 -7898364.634 10 0 58167 75600.00000 0 15287323.142 -19843027.399 -4785700.932 10 0 58167 76500.00000 0 15395400.747 -20266174.120 -1580001.133 10 0 58167 77400.00000 0 15234742.378 -20378434.298 1656421.414 10 0 58167 78300.00000 0 14850818.798 -20145667.450 4860621.021 10 0 58167 79200.00000 0 14296221.423 -19545429.153 7970250.557 10 0 58167 80100.00000 0 13628255.508 -18568094.776 10924782.660 10 0 58167 81000.00000 0 12906346.449 -17217457.833 13666696.539 10 0 58167 81900.00000 0 12189369.805 -15510776.212 16142606.320 10 0 58167 82800.00000 0 11533018.993 -13478263.076 18304308.002 10 0 58167 83700.00000 0 10987322.905 -11162042.793 20109723.976 10 0 58167 84600.00000 0 10594419.222 -8614614.892 21523726.301 10 0 58167 85500.00000 0 10386678.174 -5896889.944 22518822.398 99